[[{"header":{"parameterUnit":"m.s-1","parameterCategory":1,"la1":30.2991,"la2":30.254,"lo1":-89.0895,"lo2":-89.0444,"dy":0.0017,"dx":0.0017,"nx":28,"ny":28,"refTime":"2024-07-05T09:00:00:Z","depth":0,"parameterNumber":2,"parameterNumberName":"U-component_of_WINDS"},"data":[0,0,0,0,0,0,0,0,0,0,0,0,0,0,0,0,0,0,0,0,0,0,0,0,0,0,0,0,0,0,0,0,0,0,0,0,0,0,0,0,0,0,0,0,0,0,0,0,0,0,0,0,0,0,0,0,0,0,1.1091,1.1091,0,1.1097,1.1097,1.1097,1.1053,1.1052,1.105,1.1049,1.1058,1.1059,1.1061,0,0,0,0,0,0,0,0,0,0,0,0,0,1.1041,1.1042,1.1091,1.1091,1.1091,1.1097,1.1097,1.1097,1.1053,1.1052,1.105,1.1049,1.1058,1.1059,1.1061,0,0,0,0,0,0,0,0,0,0,0,0,0,1.1057,1.1043,1.1091,1.1069,1.1068,1.1097,1.1097,1.1097,1.1053,1.1052,1.105,1.1048,1.1057,1.1059,1.1061,1.1112,0,0,1.1068,1.1069,0,0,0,0,0,0,0,0,1.1056,1.1059,1.1072,1.1071,1.1069,1.1072,1.1083,1.1102,1.1054,1.1059,1.1049,1.1047,1.1064,1.1066,1.1071,1.1112,1.1113,1.1068,1.1069,1.107,1.1071,0,0,0,0,0,0,0,1.1055,1.1058,1.1093,1.1073,1.1071,1.106,1.106,1.1086,1.1072,1.1058,1.1055,1.1056,1.1063,1.1069,1.1071,1.1113,1.1068,1.107,1.1071,1.1072,1.1195,1.1196,0,0,0,0,0,0,1.1056,1.1057,1.1093,1.1093,1.1058,1.1062,1.1063,1.1073,1.1072,1.107,1.1058,1.1054,1.1067,1.1069,1.1071,1.1129,1.107,1.1072,1.1073,1.1193,1.1195,1.1197,0,0,0,0,0,0,1.1055,1.106,1.1093,1.1075,1.1078,1.1065,1.1077,1.1074,1.108,1.1071,1.1069,1.1067,1.1065,1.1068,1.1102,1.1129,1.1073,1.1075,1.119,1.1193,1.1196,1.1246,0,0,0,0,0,0,1.1054,1.106,1.1079,1.1075,1.1079,1.1123,1.1079,1.1076,1.1084,1.1079,1.1079,1.1077,1.1064,1.1099,1.1104,1.1131,1.1077,1.1188,1.1192,1.1195,1.1242,1.1251,1.1258,0,0,0,0,0,1.1053,1.1094,1.108,1.1085,1.1102,1.1124,1.1127,1.111,1.1086,1.1105,1.1099,1.1077,1.1125,1.1103,1.1108,1.1136,1.1186,1.1191,1.1195,1.1239,1.1249,1.1258,0,0,0,0,0,0,1.1102,1.1093,1.1078,1.1118,1.1122,1.1117,1.114,1.1122,1.1133,1.1128,1.1107,1.1108,1.1144,1.1144,1.1118,1.1184,1.1152,1.1157,1.1183,1.1193,1.1201,1.1199,1.1078,0,0,0,0,0,1.1117,1.1135,1.1127,1.1164,1.1166,1.1153,1.1162,1.1149,1.1152,1.1154,1.1151,1.1155,1.1171,1.1182,1.1197,1.1242,1.1241,1.1264,1.1272,1.1279,1.1284,1.1306,1.1316,1.1212,1.1212,1.1212,0,0,1.1149,1.1147,1.1159,1.1173,1.1175,1.1194,1.1155,1.1177,1.1191,1.1158,1.1188,1.1186,1.119,1.1229,1.1246,1.123,1.1312,1.1284,1.129,1.1291,1.1312,1.1322,1.1331,1.1215,1.1214,1.1214,0,0,1.1217,1.1218,1.1247,1.125,1.1252,1.1243,1.125,1.1247,1.1244,1.1274,1.1249,1.1266,1.1294,1.1298,1.1303,1.1372,1.1352,1.1377,1.1418,1.1441,1.1449,1.1456,1.1479,1.1488,1.1383,1.1383,1.1383,0,1.1257,1.1284,1.1266,1.1289,1.1295,1.1265,1.1295,1.1298,1.1306,1.1311,1.1292,1.1326,1.1327,1.1366,1.1382,1.1389,1.1396,1.1377,1.1449,1.1456,1.1462,1.1484,1.1493,1.1386,1.1385,1.1385,1.1385,0,1.1332,1.1352,1.1376,1.1382,1.1392,1.1419,1.1404,1.1416,1.1402,1.1395,1.1426,1.1425,1.1438,1.1447,1.1434,1.1484,1.1473,1.1453,1.1419,1.1476,1.1496,1.1504,1.139,1.1389,1.1388,1.1387,0,0,1.1431,1.1426,1.1435,1.1437,1.1437,1.1452,1.1478,1.1489,1.1499,1.1506,1.1526,1.1551,1.1531,1.1537,1.1524,1.1544,1.1597,1.152,1.152,1.1533,1.165,1.1665,1.1675,1.1584,1.1586,1.1587,1.1649,0,1.1496,1.1538,1.1521,1.1565,1.1582,1.1553,1.1575,1.1578,1.1572,1.1586,1.158,1.1597,1.157,1.1574,1.1592,1.1586,1.162,1.1582,1.1602,1.1603,1.16,1.1686,1.1701,1.176,1.1657,1.1659,1.166,0,1.1577,1.1585,1.163,1.1626,1.1633,1.1653,1.1661,1.1676,1.1678,1.1672,1.1679,1.1662,1.1687,1.1654,1.1688,1.1662,1.167,1.1668,1.167,1.167,1.1634,1.1687,1.1779,1.1787,1.1672,1.1671,1.167,0,1.1642,1.1665,1.1694,1.1697,1.1693,1.1708,1.1707,1.1708,1.1716,1.1724,1.1729,1.1741,1.1747,1.1756,1.1743,1.172,1.1778,1.1744,1.1773,1.1773,1.1785,1.1784,1.1879,1.1793,1.1793,1.1793,1.1793,0,1.1715,1.1743,1.1723,1.1741,1.1771,1.1752,1.1783,1.178,1.1781,1.1797,1.1774,1.1791,1.1772,1.1787,1.1777,1.1805,1.1809,1.1805,1.1801,1.1806,1.1806,1.1809,1.1804,1.1795,1.1795,1.1794,1.1794,0,1.1792,1.178,1.1809,1.1804,1.1803,1.1825,1.1821,1.1837,1.183,1.1851,1.1855,1.1844,1.186,1.1847,1.1864,1.1857,1.1894,1.1886,1.1893,1.189,1.1918,1.1915,1.2017,1.2029,1.1937,1.1938,1.1939,0,1.1839,1.186,1.1856,1.1865,1.1865,1.1881,1.1888,1.1871,1.188,1.1884,1.19,1.1914,1.1923,1.1951,1.1944,1.1956,1.1947,1.1982,1.1949,1.1952,1.1946,1.1944,1.1945,1.1988,1.1989,1.199,1.1991,0,1.1922,1.1915,1.1926,1.1936,1.1945,1.1952,1.1957,1.1966,1.1948,1.1959,1.1975,1.1982,1.1998,1.2012,1.2022,1.2022,1.2003,1.2002,1.2008,1.2012,1.2015,1.2012,1.1909,1.1999,1.1998,1.1997,1.1997,1.1997,1.1984,1.2001,1.2,1.2014,1.2015,1.202,1.2035,1.2029,1.2041,1.2052,1.2042,1.206,1.2062,1.2073,1.2075,1.2089,1.2075,1.2086,1.2088,1.2091,1.2094,1.2014,1.2091,1.2091,1.2091,1.2091,1.2091,0,1.2065,1.2063,1.2076,1.2083,1.2093,1.2075,1.2079,1.2089,1.2105,1.2108,1.2118,1.2136,1.2149,1.2143,1.2155,1.2168,1.216,1.2171,1.2169,1.2169,1.2107,1.2099,1.2178,1.2178,1.2178,1.2178,1.2178,1.2178,1.2108,1.2135,1.2127,1.2154,1.2153,1.217,1.2174,1.2178,1.218,1.22,1.2211,1.2207,1.2206,1.2218,1.2229,1.2227,1.2232,1.2246,1.2241,1.2183,1.2174,1.2166,1.2158,1.2248,1.2248,1.2302,1.2303,1.2303]},{"header":{"parameterUnit":"m.s-1","parameterCategory":1,"la1":30.2991,"la2":30.254,"lo1":-89.0895,"lo2":-89.0444,"dy":0.0017,"dx":0.0017,"nx":28,"ny":28,"refTime":"2024-07-05T09:00:00:Z","depth":0,"parameterNumber":3,"parameterNumberName":"V-component_of_WINDS"},"data":[0,0,0,0,0,0,0,0,0,0,0,0,0,0,0,0,0,0,0,0,0,0,0,0,0,0,0,0,0,0,0,0,0,0,0,0,0,0,0,0,0,0,0,0,0,0,0,0,0,0,0,0,0,0,0,0,0,0,3.7837,3.7838,0,3.7884,3.7884,3.7885,3.7852,3.785,3.7849,3.7847,3.789,3.7893,3.7895,0,0,0,0,0,0,0,0,0,0,0,0,0,3.7714,3.7717,3.7837,3.7838,3.7838,3.7884,3.7884,3.7885,3.7852,3.785,3.7848,3.7847,3.7889,3.7892,3.7895,0,0,0,0,0,0,0,0,0,0,0,0,0,3.7765,3.7718,3.7837,3.7827,3.7827,3.7883,3.7884,3.7885,3.7852,3.785,3.7848,3.7846,3.7888,3.7892,3.7896,3.7963,0,0,3.7907,3.7909,0,0,0,0,0,0,0,0,3.7762,3.7769,3.7828,3.7828,3.7828,3.786,3.7857,3.7911,3.7853,3.7843,3.7847,3.7845,3.7882,3.7886,3.7899,3.7965,3.7967,3.7908,3.791,3.7911,3.7913,0,0,0,0,0,0,0,3.7759,3.7767,3.7855,3.7829,3.7829,3.7819,3.7824,3.7867,3.7874,3.7843,3.7841,3.7847,3.7881,3.7896,3.79,3.7967,3.7907,3.7911,3.7913,3.7915,3.8089,3.8091,0,0,0,0,0,0,3.7757,3.7765,3.7854,3.7857,3.7789,3.7823,3.7828,3.7852,3.7873,3.7874,3.7849,3.7846,3.789,3.7896,3.7901,3.798,3.7911,3.7915,3.7917,3.8087,3.8089,3.8092,0,0,0,0,0,0,3.7754,3.7765,3.7852,3.781,3.782,3.7828,3.7854,3.7854,3.7868,3.7878,3.7878,3.7863,3.7889,3.7896,3.7948,3.7981,3.7917,3.792,3.8084,3.8087,3.8091,3.8139,0,0,0,0,0,0,3.7751,3.7764,3.7791,3.7811,3.7823,3.7899,3.7856,3.7856,3.7875,3.7871,3.7891,3.7892,3.7888,3.7942,3.7952,3.7985,3.7923,3.8081,3.8085,3.809,3.8134,3.8144,3.8152,0,0,0,0,0,3.7747,3.7802,3.7792,3.7803,3.7857,3.7901,3.7908,3.7903,3.7878,3.7904,3.791,3.7891,3.7977,3.7948,3.7958,3.7993,3.8079,3.8084,3.8089,3.8131,3.8142,3.8152,0,0,0,0,0,0,3.7783,3.7804,3.7794,3.7858,3.7878,3.7896,3.7928,3.7916,3.7942,3.7937,3.7929,3.7933,3.7987,3.7996,3.7964,3.8059,3.8023,3.8031,3.8051,3.8062,3.8071,3.8067,3.7926,0,0,0,0,0,3.7799,3.7836,3.7851,3.7906,3.7917,3.7921,3.794,3.7935,3.7955,3.7963,3.7973,3.7992,3.8023,3.8043,3.8072,3.8136,3.8139,3.8165,3.8174,3.8181,3.8187,3.822,3.8232,3.811,3.811,3.8109,0,0,3.7832,3.7848,3.7871,3.7914,3.7929,3.7965,3.7928,3.7968,3.7994,3.7969,3.8018,3.8026,3.8047,3.8105,3.8131,3.8113,3.8222,3.8188,3.8193,3.8196,3.8227,3.8239,3.8249,3.8113,3.8113,3.8112,0,0,3.7909,3.7926,3.7972,3.7989,3.8013,3.8016,3.8027,3.8047,3.8051,3.8102,3.8083,3.8114,3.8167,3.8183,3.8197,3.8281,3.8264,3.8291,3.8335,3.8368,3.8378,3.8386,3.8415,3.8425,3.8297,3.8297,3.8297,0,3.7945,3.8001,3.7998,3.8039,3.8058,3.8039,3.8085,3.8101,3.8132,3.8145,3.8125,3.8193,3.8205,3.8266,3.8286,3.83,3.8311,3.8288,3.8377,3.8385,3.8393,3.842,3.8431,3.83,3.83,3.83,3.8299,0,3.8044,3.8083,3.8118,3.8151,3.8173,3.8217,3.8219,3.8242,3.8235,3.8239,3.829,3.8305,3.8336,3.835,3.8343,3.841,3.8399,3.8378,3.8342,3.8408,3.8433,3.8444,3.8305,3.8304,3.8303,3.8302,0,0,3.8144,3.8176,3.8189,3.8203,3.8229,3.8258,3.83,3.8333,3.8352,3.8375,3.8409,3.8456,3.8437,3.8454,3.8449,3.8478,3.8542,3.8454,3.8454,3.8468,3.8615,3.8629,3.8641,3.8532,3.8534,3.8535,3.8613,0,3.8222,3.8298,3.8296,3.8366,3.8401,3.8383,3.842,3.8439,3.8444,3.8473,3.8478,3.8511,3.8485,3.8495,3.8523,3.8528,3.8571,3.8523,3.8561,3.8563,3.8556,3.8655,3.867,3.8742,3.8623,3.8624,3.8626,0,3.8323,3.8351,3.8424,3.8445,3.8459,3.8493,3.8522,3.8551,3.8571,3.8573,3.8592,3.8583,3.8624,3.8588,3.8644,3.8612,3.8627,3.8633,3.8635,3.8637,3.8597,3.8658,3.8765,3.8775,3.8641,3.864,3.8639,0,3.8387,3.8443,3.8494,3.8507,3.8533,3.8556,3.8568,3.8587,3.8606,3.8631,3.8644,3.8673,3.8689,3.8711,3.8709,3.8683,3.8765,3.873,3.8766,3.8766,3.8783,3.8781,3.8893,3.8796,3.8796,3.8795,3.8795,0,3.8473,3.8518,3.8523,3.8554,3.8604,3.8602,3.865,3.8659,3.8676,3.8708,3.8694,3.8723,3.872,3.8749,3.8747,3.8793,3.8801,3.8802,3.8801,3.8802,3.8802,3.8811,3.8806,3.8798,3.8798,3.8797,3.8797,0,3.8552,3.8558,3.8612,3.8633,3.8639,3.8674,3.8691,3.872,3.8724,3.8764,3.8773,3.878,3.8814,3.8814,3.8853,3.8852,3.8907,3.8901,3.8901,3.8899,3.8935,3.8931,3.9055,3.907,3.8965,3.8966,3.8967,0,3.8606,3.8641,3.8665,3.8686,3.87,3.8734,3.8754,3.8753,3.8774,3.88,3.8826,3.8859,3.8885,3.8939,3.8946,3.8975,3.8969,3.901,3.8973,3.8973,3.8968,3.8965,3.8968,3.9017,3.9018,3.9019,3.902,0,3.87,3.8702,3.8732,3.8764,3.8789,3.8814,3.8837,3.8854,3.8855,3.888,3.8915,3.8936,3.8975,3.9007,3.9036,3.9046,3.9032,3.9032,3.9041,3.9043,3.9041,3.9041,3.8919,3.9028,3.9027,3.9027,3.9026,3.9026,3.8767,3.8797,3.882,3.8854,3.8872,3.8893,3.8922,3.893,3.896,3.8994,3.8991,3.903,3.9049,3.9086,3.9098,3.9127,3.9113,3.9127,3.9131,3.9134,3.9137,3.9038,3.9133,3.9132,3.9132,3.9132,3.9132,0,3.886,3.8874,3.8906,3.8939,3.8966,3.8954,3.8978,3.9001,3.9036,3.9056,3.9082,3.9122,3.9154,3.9164,3.9194,3.9215,3.921,3.9223,3.9221,3.9223,3.9149,3.9137,3.9227,3.9227,3.9227,3.9227,3.9227,3.9227,3.8911,3.8961,3.8965,3.9022,3.9035,3.9075,3.909,3.9109,3.9125,3.9171,3.9198,3.9205,3.9221,3.9252,3.928,3.9282,3.9293,3.9308,3.9307,3.9238,3.9228,3.9219,3.9208,3.9311,3.9311,3.9379,3.9379,3.938]}]]